Weather Roundup
Issued by NWS Chicago, IL

Home | Current Version | Previous Version | Graphics & Text | Print | Product List | Glossary On
Versions: 1 2 3 4 5 6 7 8 9 10 11 12 13 14 15 16 17 18 19 20 21 22 23 24 25 26 27 28 29 30 31 32 33 34 35 36 37 38 39 40 41 42 43 44 45 46 47 48 49 50
000
NZUS59 KLOT 280602
HRRLOT

CHICAGO AREA WEATHER ROUNDUP
NATIONAL WEATHER SERVICE CHICAGO/ROMEOVILLE IL
100 AM CDT SAT MAR 28 2015

NOTE: "FAIR" INDICATES FEW OR NO CLOUDS BELOW 12,000 FEET WITH NO
SIGNIFICANT WEATHER AND/OR OBSTRUCTIONS TO VISIBILITY.

* THESE STATIONS ARE NOT UNDER NWS QUALITY CONTROL. THEY ALSO MAY NOT
  REPORT WEATHER SUCH AS PRECIPITATION OR FOG.

ILZ005-006-012>014-019>023-280700-
NORTHEAST ILLINOIS

CITY           SKY/WX    TMP DP  RH WIND       PRES   REMARKS
OHARE          PTCLDY    22  14  71 N6        30.21S WCI  14
6HR MIN TEMP:  22; 6HR MAX TEMP:  26;

MIDWAY         PTCLDY    27  14  58 N7        30.22S WCI  19
6HR MIN TEMP:  26; 6HR MAX TEMP:  27;

AURORA         CLEAR     18  13  80 NW3       30.23S
6HR MIN TEMP:  17; 6HR MAX TEMP:  31;

WAUKEGAN       NOT AVBL
DUPAGE AIRPORT   N/A     19  12  74 N5        30.21S WCI  12
6HR MIN TEMP:  18; 6HR MAX TEMP:  27;

WHEELING       CLEAR     20  13  74 NW3       30.24R
6HR MIN TEMP:  20; 6HR MAX TEMP:  25;

NORTHERLY IS     N/A     26  11  52 N16         N/A  WCI  14
$$

WIZ051-052-058>065-066-070>072-280700-
SOUTHEAST WISCONSIN

CITY           SKY/WX    TMP DP  RH WIND       PRES   REMARKS
MILWAUKEE      PTCLDY    23  11  60 W6        30.23R WCI  16
6HR MIN TEMP:  22; 6HR MAX TEMP:  24;

KENOSHA*       CLEAR     20  13  74 NW5       30.22S WCI  13
RACINE*        CLEAR     23  11  60 N5        30.24R WCI  17
$$

INZ001>003-010>013-019-020-280700-
NORTHWEST INDIANA

CITY           SKY/WX    TMP DP  RH WIND       PRES   REMARKS
GARY*          NOT AVBL
MICHIGAN CITY* NOT AVBL
RENSSELAER*    NOT AVBL
$$

LMZ740>746-280700-
SOUTHERN LAKE MICHIGAN

STATION/POSITION TIME  SKY/WX   TEMP WIND        PRES    VSBY
                                AIR  DIR/SP/G
                 (UTC)          (F)  (DEG/KT/KT) (MB)    (MI)
HARRISON CRIB    0500            26   10/ 17/ 21   N/A
BURNHAM HARBOR   0600            26   10/ 11/ 16   N/A
CALUMET HARBOR   0500            26   10/ 14/ 20 1022.0S
BURNS HARBOR     0500            26   30/ 15/ 20 1023.4R
MICHIGAN CITY    0500            24  360/ 19/ 22   N/A
$$

ABBREVIATIONS USED IN REMARKS
   TC - TEMPERATURE IN CELSIUS
  WCI - WIND CHILL INDEX
   HX - HEAT INDEX
  VSB - VISIBILITY
$$



USA.gov is the U.S. government's official web portal to all federal, state and local government web resources and services.